"read_dt","SO2 (ppb)","flags","PMT voltage (V)","lamp voltage (V)","lamp intensity (Hz)","internal temp (C)","react chamber temp (C)","sample flow (l/min)","pres (mmHg)","SO2 bkg (ppb)","SO2 coefficient"
2014-08-19 00:00:00,1871E-3,5C000000,-0724,0828,12040,029.2,045.5,0.472,725.8,01.19,0.508
2014-08-19 00:01:00,1894E-3,5C000000,-0724,0829,12243,029.2,045.5,0.472,725.8,01.19,0.508
2014-08-19 00:02:00,1908E-3,5C000000,-0724,0828,12250,029.2,045.5,0.472,725.8,01.19,0.508
2014-08-19 00:03:00,1975E-3,5C000000,-0724,0829,12259,029.2,045.5,0.473,725.8,01.19,0.508
2014-08-19 00:04:00,1816E-3,5C000000,-0724,0827,12213,029.2,045.5,0.472,725.8,01.19,0.508
2014-08-19 00:05:00,1999E-3,5C000000,-0724,0828,12060,029.2,045.5,0.472,725.8,01.19,0.508
2014-08-19 00:06:00,1901E-3,5C000000,-0724,0828,12242,029.2,045.5,0.472,725.8,01.19,0.508
2014-08-19 00:07:00,1868E-3,5C000000,-0724,0829,12226,029.2,045.5,0.472,725.8,01.19,0.508
2014-08-19 00:08:00,1774E-3,5C000000,-0724,0828,12213,029.2,045.5,0.472,725.8,01.19,0.508
2014-08-19 00:09:00,1835E-3,5C000000,-0724,0829,12272,029.2,045.5,0.472,725.9,01.19,0.508
2014-08-19 00:10:00,1847E-3,5C000000,-0724,0830,12360,029.2,045.5,0.473,725.9,01.19,0.508
2014-08-19 00:11:00,1743E-3,5C000000,-0724,0828,12328,029.2,045.5,0.472,725.9,01.19,0.508
2014-08-19 00:12:00,1865E-3,5C000000,-0724,0830,12391,029.2,045.6,0.472,725.9,01.19,0.508
2014-08-19 00:13:00,1859E-3,5C000000,-0724,0829,12080,029.2,045.5,0.472,725.9,01.19,0.508
2014-08-19 00:14:00,1729E-3,5C000000,-0724,0828,12321,029.2,045.5,0.472,725.9,01.19,0.508
2014-08-19 00:15:00,1954E-3,5C000000,-0724,0829,12243,029.2,045.5,0.472,725.9,01.19,0.508
2014-08-19 00:16:00,1869E-3,5C000000,-0724,0829,11953,029.2,045.5,0.472,725.9,01.19,0.508
2014-08-19 00:17:00,1837E-3,5C000000,-0724,0828,12146,029.2,045.5,0.472,725.9,01.19,0.508
2014-08-19 00:18:00,2016E-3,5C000000,-0724,0828,11996,029.3,045.5,0.472,725.9,01.19,0.508
2014-08-19 00:19:00,1763E-3,5C000000,-0724,0830,12234,029.2,045.5,0.472,725.9,01.19,0.508
2014-08-19 00:20:00,1936E-3,5C000000,-0724,0829,12359,029.2,045.5,0.472,725.9,01.19,0.508
2014-08-19 00:21:00,1908E-3,5C000000,-0724,0828,12288,029.2,045.5,0.472,725.9,01.19,0.508
2014-08-19 00:22:00,1831E-3,5C000000,-0724,0829,12103,029.2,045.5,0.472,725.9,01.19,0.508
2014-08-19 00:23:00,1793E-3,5C000000,-0724,0829,12151,029.2,045.5,0.472,725.9,01.19,0.508
2014-08-19 00:24:00,1823E-3,5C000000,-0724,0828,12187,029.3,045.5,0.472,725.9,01.19,0.508
2014-08-19 00:25:00,1940E-3,5C000000,-0724,0828,12268,029.3,045.5,0.472,725.8,01.19,0.508
2014-08-19 00:26:00,1921E-3,5C000000,-0724,0829,12294,029.2,045.5,0.472,725.8,01.19,0.508
2014-08-19 00:27:00,1892E-3,5C000000,-0724,0828,12340,029.3,045.5,0.472,725.8,01.19,0.508
2014-08-19 00:28:00,1930E-3,5C000000,-0724,0829,12322,029.2,045.5,0.472,725.8,01.19,0.508
2014-08-19 00:29:00,1879E-3,5C000000,-0724,0829,12187,029.3,045.5,0.472,725.8,01.19,0.508
2014-08-19 00:30:00,1831E-3,5C000000,-0724,0828,11934,029.3,045.5,0.472,725.8,01.19,0.508
2014-08-19 00:31:00,1825E-3,5C000000,-0724,0829,12136,029.2,045.5,0.472,725.8,01.19,0.508
2014-08-19 00:32:00,1793E-3,5C000000,-0724,0829,12390,029.3,045.5,0.472,725.7,01.19,0.508
2014-08-19 00:33:00,1854E-3,5C000000,-0724,0829,12204,029.2,045.5,0.472,725.7,01.19,0.508
2014-08-19 00:34:00,1906E-3,5C000000,-0724,0827,12344,029.2,045.5,0.472,725.7,01.19,0.508
2014-08-19 00:35:00,1886E-3,5C000000,-0724,0829,12201,029.3,045.5,0.472,725.7,01.19,0.508
2014-08-19 00:36:00,1873E-3,5C000000,-0724,0828,12078,029.3,045.5,0.472,725.7,01.19,0.508
2014-08-19 00:37:00,1931E-3,5C000000,-0724,0829,12332,029.3,045.5,0.472,725.7,01.19,0.508
2014-08-19 00:38:00,1825E-3,5C000000,-0724,0828,12328,029.3,045.5,0.472,725.7,01.19,0.508
2014-08-19 00:39:00,1832E-3,5C000000,-0724,0829,12271,029.3,045.5,0.472,725.6,01.19,0.508
2014-08-19 00:40:00,1880E-3,5C000000,-0724,0828,12165,029.3,045.5,0.472,725.7,01.19,0.508
2014-08-19 00:41:00,1900E-3,5C000000,-0724,0830,12181,029.3,045.5,0.472,725.7,01.19,0.508
2014-08-19 00:42:00,1827E-3,5C000000,-0724,0829,12173,029.3,045.5,0.472,725.6,01.19,0.508
2014-08-19 00:43:00,1807E-3,5C000000,-0724,0829,12209,029.3,045.5,0.472,725.6,01.19,0.508
2014-08-19 00:44:00,1865E-3,5C000000,-0724,0830,12072,029.3,045.5,0.472,725.6,01.19,0.508
2014-08-19 00:45:00,1837E-3,5C000000,-0724,0828,12189,029.3,045.5,0.472,725.6,01.19,0.508
2014-08-19 00:46:00,1745E-3,5C000000,-0724,0829,12284,029.3,045.5,0.472,725.6,01.19,0.508
2014-08-19 00:47:00,1749E-3,5C000000,-0724,0829,12213,029.3,045.5,0.472,725.6,01.19,0.508
2014-08-19 00:48:00,1802E-3,5C000000,-0724,0827,12010,029.3,045.5,0.472,725.6,01.19,0.508
2014-08-19 00:49:00,2016E-3,5C000000,-0724,0828,12264,029.3,045.5,0.472,725.6,01.19,0.508
2014-08-19 00:50:00,1798E-3,5C000000,-0724,0828,12229,029.3,045.5,0.472,725.5,01.19,0.508
2014-08-19 00:51:00,1770E-3,5C000000,-0724,0828,12151,029.3,045.5,0.472,725.5,01.19,0.508
2014-08-19 00:52:00,1967E-3,5C000000,-0724,0829,12047,029.3,045.5,0.472,725.5,01.19,0.508
2014-08-19 00:53:00,1798E-3,5C000000,-0724,0828,12137,029.3,045.5,0.472,725.5,01.19,0.508
2014-08-19 00:54:00,1885E-3,5C000000,-0724,0828,12189,029.3,045.5,0.472,725.5,01.19,0.508
2014-08-19 00:55:00,1889E-3,5C000000,-0724,0829,12231,029.3,045.5,0.472,725.5,01.19,0.508
2014-08-19 00:56:00,1930E-3,5C000000,-0724,0828,12342,029.3,045.5,0.472,725.5,01.19,0.508
2014-08-19 00:57:00,1910E-3,5C000000,-0724,0829,12052,029.3,045.5,0.472,725.5,01.19,0.508
2014-08-19 00:58:00,1899E-3,5C000000,-0724,0829,12156,029.3,045.5,0.472,725.5,01.19,0.508
2014-08-19 00:59:00,1753E-3,5C000000,-0724,0828,12329,029.3,045.5,0.472,725.5,01.19,0.508
2014-08-19 01:00:00,1805E-3,5C000000,-0724,0829,12251,029.3,045.5,0.472,725.5,01.19,0.508
2014-08-19 01:01:00,1810E-3,5C000000,-0724,0828,12223,029.3,045.5,0.472,725.5,01.19,0.508
2014-08-19 01:02:00,2052E-3,5C000000,-0724,0829,11927,029.3,045.5,0.472,725.5,01.19,0.508
2014-08-19 01:03:00,1906E-3,5C000000,-0724,0830,12277,029.3,045.5,0.472,725.5,01.19,0.508
2014-08-19 01:04:00,1833E-3,5C000000,-0724,0829,12217,029.3,045.5,0.472,725.5,01.19,0.508
2014-08-19 01:05:00,1866E-3,5C000000,-0724,0829,12270,029.3,045.5,0.472,725.5,01.19,0.508
2014-08-19 01:06:00,1823E-3,5C000000,-0724,0829,12060,029.3,045.5,0.472,725.5,01.19,0.508
2014-08-19 01:07:00,1826E-3,5C000000,-0724,0828,12369,029.3,045.5,0.472,725.5,01.19,0.508
2014-08-19 01:08:00,1882E-3,5C000000,-0724,0829,12325,029.3,045.5,0.472,725.5,01.19,0.508
2014-08-19 01:09:00,1880E-3,5C000000,-0724,0829,12219,029.3,045.6,0.472,725.4,01.19,0.508
2014-08-19 01:10:00,1849E-3,5C000000,-0724,0829,12241,029.3,045.5,0.472,725.5,01.19,0.508
2014-08-19 01:11:00,1849E-3,5C000000,-0724,0828,12335,029.3,045.5,0.472,725.5,01.19,0.508
2014-08-19 01:12:00,1886E-3,5C000000,-0724,0828,12230,029.3,045.5,0.472,725.4,01.19,0.508
2014-08-19 01:13:00,1867E-3,5C000000,-0724,0828,12242,029.3,045.5,0.472,725.4,01.19,0.508
2014-08-19 01:14:00,1851E-3,5C000000,-0724,0829,12399,029.3,045.5,0.472,725.4,01.19,0.508
2014-08-19 01:15:00,1857E-3,5C000000,-0724,0828,12047,029.3,045.5,0.472,725.4,01.19,0.508
2014-08-19 01:16:00,1736E-3,5C000000,-0724,0829,12269,029.3,045.5,0.472,725.4,01.19,0.508
2014-08-19 01:17:00,1989E-3,5C000000,-0724,0830,12406,029.3,045.5,0.472,725.4,01.19,0.508
2014-08-19 01:18:00,1989E-3,5C000000,-0724,0830,12058,029.3,045.5,0.472,725.4,01.19,0.508
2014-08-19 01:19:00,1895E-3,5C000000,-0724,0829,12282,029.3,045.5,0.472,725.4,01.19,0.508
2014-08-19 01:20:00,1895E-3,5C000000,-0724,0828,12409,029.3,045.5,0.472,725.4,01.19,0.508
2014-08-19 01:21:00,1914E-3,5C000000,-0724,0828,12280,029.3,045.5,0.472,725.4,01.19,0.508
2014-08-19 01:22:00,1773E-3,5C000000,-0724,0828,12320,029.3,045.5,0.472,725.4,01.19,0.508
2014-08-19 01:23:00,1810E-3,5C000000,-0724,0828,12177,029.3,045.5,0.472,725.3,01.19,0.508
2014-08-19 01:24:00,1840E-3,5C000000,-0724,0828,12248,029.3,045.5,0.472,725.3,01.19,0.508
2014-08-19 01:25:00,1733E-3,5C000000,-0724,0828,12350,029.3,045.5,0.472,725.3,01.19,0.508
2014-08-19 01:26:00,1847E-3,5C000000,-0724,0827,12197,029.3,045.5,0.472,725.3,01.19,0.508
2014-08-19 01:27:00,1877E-3,5C000000,-0724,0828,12397,029.4,045.5,0.472,725.3,01.19,0.508
2014-08-19 01:28:00,1917E-3,5C000000,-0724,0827,12098,029.3,045.5,0.472,725.3,01.19,0.508
2014-08-19 01:29:00,1791E-3,5C000000,-0724,0827,12034,029.3,045.5,0.472,725.3,01.19,0.508
2014-08-19 01:30:00,1841E-3,5C000000,-0724,0827,12184,029.4,045.5,0.472,725.2,01.19,0.508
2014-08-19 01:31:00,1806E-3,5C000000,-0724,0828,12132,029.4,045.5,0.472,725.2,01.19,0.508
2014-08-19 01:32:00,1784E-3,5C000000,-0724,0828,12140,029.3,045.5,0.472,725.2,01.19,0.508
2014-08-19 01:33:00,1940E-3,5C000000,-0724,0828,12221,029.4,045.5,0.472,725.2,01.19,0.508
2014-08-19 01:34:00,1844E-3,5C000000,-0724,0828,12135,029.4,045.5,0.472,725.2,01.19,0.508
2014-08-19 01:35:00,1988E-3,5C000000,-0724,0828,12335,029.3,045.5,0.472,725.2,01.19,0.508
2014-08-19 01:36:00,1785E-3,5C000000,-0724,0828,12261,029.3,045.5,0.472,725.2,01.19,0.508
2014-08-19 01:37:00,1941E-3,5C000000,-0724,0828,12273,029.3,045.5,0.472,725.2,01.19,0.508
2014-08-19 01:38:00,1737E-3,5C000000,-0724,0828,12338,029.3,045.5,0.472,725.2,01.19,0.508
2014-08-19 01:39:00,2002E-3,5C000000,-0724,0828,12154,029.3,045.5,0.472,725.2,01.19,0.508
2014-08-19 01:40:00,1929E-3,5C000000,-0724,0828,12273,029.4,045.5,0.472,725.2,01.19,0.508
2014-08-19 01:41:00,1827E-3,5C000000,-0724,0828,12240,029.4,045.5,0.472,725.2,01.19,0.508
2014-08-19 01:42:00,1962E-3,5C000000,-0724,0829,12161,029.4,045.5,0.472,725.2,01.19,0.508
2014-08-19 01:43:00,1825E-3,5C000000,-0724,0828,12212,029.4,045.5,0.472,725.1,01.19,0.508
2014-08-19 01:44:00,1738E-3,5C000000,-0724,0829,12327,029.4,045.5,0.472,725.1,01.19,0.508
2014-08-19 01:45:00,1865E-3,5C000000,-0724,0828,12228,029.4,045.6,0.472,725.1,01.19,0.508
2014-08-19 01:46:00,1841E-3,5C000000,-0724,0828,12273,029.4,045.5,0.472,725.1,01.19,0.508
2014-08-19 01:47:00,1776E-3,5C000000,-0724,0829,12281,029.4,045.5,0.472,725.1,01.19,0.508
2014-08-19 01:48:00,1929E-3,5C000000,-0724,0829,12242,029.4,045.5,0.472,725.1,01.19,0.508
2014-08-19 01:49:00,1874E-3,5C000000,-0724,0829,12133,029.4,045.5,0.472,725.1,01.19,0.508
2014-08-19 01:50:00,1876E-3,5C000000,-0724,0829,12296,029.4,045.5,0.472,725.1,01.19,0.508
2014-08-19 01:51:00,1834E-3,5C000000,-0724,0829,12230,029.4,045.5,0.472,725.1,01.19,0.508
2014-08-19 01:52:00,1842E-3,5C000000,-0724,0829,12199,029.4,045.5,0.472,725.1,01.19,0.508
2014-08-19 01:53:00,1846E-3,5C000000,-0724,0828,12349,029.4,045.5,0.472,725.1,01.19,0.508
2014-08-19 01:54:00,1862E-3,5C000000,-0724,0829,12072,029.4,045.5,0.472,725.1,01.19,0.508
2014-08-19 01:55:00,1816E-3,5C000000,-0724,0828,12030,029.4,045.5,0.471,725.1,01.19,0.508
2014-08-19 01:56:00,1876E-3,5C000000,-0724,0828,12060,029.4,045.5,0.472,725.1,01.19,0.508
2014-08-19 01:57:00,1848E-3,5C000000,-0724,0829,12355,029.4,045.5,0.471,725.0,01.19,0.508
2014-08-19 01:58:00,1811E-3,5C000000,-0724,0828,12201,029.4,045.5,0.472,725.0,01.19,0.508
2014-08-19 01:59:00,1725E-3,5C000000,-0724,0828,12113,029.4,045.5,0.471,725.0,01.19,0.508
2014-08-19 02:00:00,1828E-3,5C000000,-0724,0827,12177,029.4,045.5,0.472,725.0,01.19,0.508
2014-08-19 02:01:00,1802E-3,5C000000,-0724,0827,11963,029.4,045.5,0.472,725.0,01.19,0.508
2014-08-19 02:02:00,1713E-3,5C000000,-0724,0828,12329,029.4,045.5,0.472,725.0,01.19,0.508
2014-08-19 02:03:00,1745E-3,5C000000,-0724,0828,11983,029.4,045.5,0.472,725.0,01.19,0.508
2014-08-19 02:04:00,1831E-3,5C000000,-0724,0828,12285,029.4,045.5,0.472,725.0,01.19,0.508
2014-08-19 02:05:00,1823E-3,5C000000,-0724,0828,12234,029.4,045.5,0.472,725.0,01.19,0.508
2014-08-19 02:06:00,1879E-3,5C000000,-0724,0828,12097,029.4,045.5,0.472,725.0,01.19,0.508
2014-08-19 02:07:00,1827E-3,5C000000,-0724,0829,12153,029.4,045.5,0.472,725.0,01.19,0.508
2014-08-19 02:08:00,1781E-3,5C000000,-0724,0829,12105,029.4,045.5,0.472,725.0,01.19,0.508
2014-08-19 02:09:00,1929E-3,5C000000,-0724,0830,12054,029.4,045.5,0.472,725.0,01.19,0.508
2014-08-19 02:10:00,1810E-3,5C000000,-0724,0828,12313,029.4,045.5,0.471,725.0,01.19,0.508
2014-08-19 02:11:00,1782E-3,5C000000,-0724,0829,12257,029.4,045.5,0.472,725.0,01.19,0.508
2014-08-19 02:12:00,1753E-3,5C000000,-0724,0828,12166,029.4,045.5,0.471,725.0,01.19,0.508
2014-08-19 02:13:00,1792E-3,5C000000,-0724,0827,12240,029.4,045.5,0.472,725.0,01.19,0.508
2014-08-19 02:14:00,1843E-3,5C000000,-0724,0828,12293,029.4,045.5,0.471,725.0,01.19,0.508
2014-08-19 02:15:00,1859E-3,5C000000,-0724,0829,12156,029.4,045.5,0.472,725.0,01.19,0.508
2014-08-19 02:16:00,1998E-3,5C000000,-0724,0828,12364,029.4,045.5,0.472,724.9,01.19,0.508
2014-08-19 02:17:00,1838E-3,5C000000,-0724,0828,12179,029.4,045.5,0.472,724.9,01.19,0.508
2014-08-19 02:18:00,1952E-3,5C000000,-0724,0828,12080,029.4,045.6,0.472,724.9,01.19,0.508
2014-08-19 02:19:00,1817E-3,5C000000,-0724,0829,12343,029.4,045.5,0.472,724.9,01.19,0.508
2014-08-19 02:20:00,1770E-3,5C000000,-0724,0829,12201,029.4,045.5,0.472,724.9,01.19,0.508
2014-08-19 02:21:00,1717E-3,5C000000,-0724,0828,12172,029.4,045.5,0.472,724.9,01.19,0.508
2014-08-19 02:22:00,1864E-3,5C000000,-0724,0829,12155,029.4,045.5,0.472,724.9,01.19,0.508
2014-08-19 02:23:00,1912E-3,5C000000,-0724,0828,12096,029.4,045.5,0.471,724.9,01.19,0.508
2014-08-19 02:24:00,1924E-3,5C000000,-0724,0828,12060,029.5,045.5,0.472,724.9,01.19,0.508
2014-08-19 02:25:00,1911E-3,5C000000,-0724,0828,12130,029.5,045.5,0.471,724.9,01.19,0.508
2014-08-19 02:26:00,1904E-3,5C000000,-0724,0829,12092,029.5,045.5,0.472,724.9,01.19,0.508
2014-08-19 02:27:00,1908E-3,5C000000,-0724,0828,12202,029.5,045.5,0.471,724.9,01.19,0.508
2014-08-19 02:28:00,1983E-3,5C000000,-0724,0829,12132,029.5,045.5,0.472,724.8,01.19,0.508
2014-08-19 02:29:00,1966E-3,5C000000,-0724,0828,12180,029.5,045.5,0.471,724.8,01.19,0.508
2014-08-19 02:30:00,1913E-3,5C000000,-0724,0828,12013,029.5,045.5,0.472,724.8,01.19,0.508
2014-08-19 02:31:00,1966E-3,5C000000,-0724,0829,12142,029.4,045.5,0.472,724.8,01.19,0.508
2014-08-19 02:32:00,1878E-3,5C000000,-0724,0827,12194,029.5,045.5,0.471,724.8,01.19,0.508
2014-08-19 02:33:00,1860E-3,5C000000,-0724,0828,12171,029.5,045.5,0.472,724.8,01.19,0.508
2014-08-19 02:34:00,2035E-3,5C000000,-0724,0829,12236,029.5,045.5,0.471,724.8,01.19,0.508
2014-08-19 02:35:00,1702E-3,5C000000,-0724,0827,12330,029.5,045.5,0.472,724.8,01.19,0.508
2014-08-19 02:36:00,1892E-3,5C000000,-0724,0829,12304,029.5,045.5,0.471,724.8,01.19,0.508
2014-08-19 02:37:00,1805E-3,5C000000,-0724,0827,12277,029.5,045.5,0.472,724.8,01.19,0.508
2014-08-19 02:38:00,1859E-3,5C000000,-0724,0829,12201,029.5,045.5,0.471,724.8,01.19,0.508
2014-08-19 02:39:00,1760E-3,5C000000,-0724,0828,12196,029.5,045.5,0.472,724.8,01.19,0.508
2014-08-19 02:40:00,1920E-3,5C000000,-0724,0828,12300,029.5,045.5,0.472,724.9,01.19,0.508
2014-08-19 02:41:00,1891E-3,5C000000,-0724,0829,12261,029.5,045.5,0.472,724.8,01.19,0.508
2014-08-19 02:42:00,1919E-3,5C000000,-0724,0829,12273,029.5,045.5,0.472,724.8,01.19,0.508
2014-08-19 02:43:00,1759E-3,5C000000,-0724,0829,12317,029.5,045.5,0.472,724.8,01.19,0.508
2014-08-19 02:44:00,1840E-3,5C000000,-0724,0828,12059,029.5,045.5,0.472,724.8,01.19,0.508
2014-08-19 02:45:00,1882E-3,5C000000,-0724,0828,12255,029.5,045.5,0.471,724.8,01.19,0.508
2014-08-19 02:46:00,1735E-3,5C000000,-0724,0827,12262,029.5,045.5,0.472,724.8,01.19,0.508
2014-08-19 02:47:00,1857E-3,5C000000,-0724,0828,12331,029.5,045.6,0.471,724.8,01.19,0.508
2014-08-19 02:48:00,1836E-3,5C000000,-0724,0828,12133,029.5,045.5,0.472,724.8,01.19,0.508
2014-08-19 02:49:00,1923E-3,5C000000,-0724,0829,12248,029.5,045.5,0.471,724.8,01.19,0.508
2014-08-19 02:50:00,1963E-3,5C000000,-0724,0829,12241,029.5,045.5,0.472,724.8,01.19,0.508
2014-08-19 02:51:00,1724E-3,5C000000,-0724,0829,12382,029.5,045.5,0.471,724.8,01.19,0.508
2014-08-19 02:52:00,1761E-3,5C000000,-0724,0828,12226,029.5,045.5,0.472,724.7,01.19,0.508
2014-08-19 02:53:00,1790E-3,5C000000,-0724,0829,12069,029.5,045.5,0.471,724.7,01.19,0.508
2014-08-19 02:54:00,1747E-3,5C000000,-0724,0828,12324,029.5,045.5,0.472,724.7,01.19,0.508
2014-08-19 02:55:00,1878E-3,5C000000,-0724,0829,12184,029.5,045.5,0.472,724.7,01.19,0.508
2014-08-19 02:56:00,1806E-3,5C000000,-0724,0829,12221,029.5,045.5,0.471,724.7,01.19,0.508
2014-08-19 02:57:00,1926E-3,5C000000,-0724,0828,12315,029.5,045.5,0.472,724.7,01.19,0.508
2014-08-19 02:58:00,1762E-3,5C000000,-0724,0828,12080,029.5,045.5,0.471,724.7,01.19,0.508
2014-08-19 02:59:00,1810E-3,5C000000,-0724,0828,12274,029.5,045.5,0.472,724.7,01.19,0.508
2014-08-19 03:00:00,1820E-3,5C000000,-0724,0829,12075,029.5,045.5,0.471,724.7,01.19,0.508
2014-08-19 03:01:00,1740E-3,5C000000,-0724,0828,12086,029.5,045.5,0.472,724.7,01.19,0.508
2014-08-19 03:02:00,1796E-3,5C000000,-0724,0828,12055,029.5,045.5,0.471,724.7,01.19,0.508
2014-08-19 03:03:00,1783E-3,5C000000,-0724,0829,12297,029.5,045.5,0.472,724.7,01.19,0.508
2014-08-19 03:04:00,1805E-3,5C000000,-0724,0829,12188,029.5,045.5,0.472,724.7,01.19,0.508
2014-08-19 03:05:00,1799E-3,5C000000,-0724,0828,12087,029.5,045.5,0.472,724.7,01.19,0.508
2014-08-19 03:06:00,1910E-3,5C000000,-0724,0829,12223,029.5,045.5,0.472,724.7,01.19,0.508
2014-08-19 03:07:00,1898E-3,5C000000,-0724,0829,12296,029.5,045.5,0.472,724.7,01.19,0.508
2014-08-19 03:08:00,1853E-3,5C000000,-0724,0829,12133,029.4,045.5,0.472,724.7,01.19,0.508
2014-08-19 03:09:00,1682E-3,5C000000,-0724,0828,12306,029.4,045.5,0.471,724.6,01.19,0.508
2014-08-19 03:10:00,1827E-3,5C000000,-0724,0829,12355,029.4,045.5,0.472,724.7,01.19,0.508
2014-08-19 03:11:00,1937E-3,5C000000,-0724,0829,12366,029.4,045.5,0.471,724.7,01.19,0.508
2014-08-19 03:12:00,1866E-3,5C000000,-0724,0828,12069,029.4,045.5,0.472,724.7,01.19,0.508
2014-08-19 03:13:00,1785E-3,5C000000,-0724,0828,12334,029.4,045.5,0.471,724.6,01.19,0.508
2014-08-19 03:14:00,1874E-3,5C000000,-0724,0827,12075,029.4,045.5,0.472,724.6,01.19,0.508
2014-08-19 03:15:00,1872E-3,5C000000,-0724,0828,12063,029.4,045.5,0.471,724.7,01.19,0.508
2014-08-19 03:16:00,1725E-3,5C000000,-0724,0829,12253,029.4,045.5,0.472,724.7,01.19,0.508
2014-08-19 03:17:00,1840E-3,5C000000,-0724,0828,12188,029.3,045.5,0.471,724.7,01.19,0.508
2014-08-19 03:18:00,1821E-3,5C000000,-0724,0827,12215,029.4,045.5,0.472,724.7,01.19,0.508
2014-08-19 03:19:00,1867E-3,5C000000,-0724,0829,12274,029.3,045.5,0.472,724.7,01.19,0.508
2014-08-19 03:20:00,1917E-3,5C000000,-0724,0828,12251,029.3,045.5,0.472,724.7,01.19,0.508
2014-08-19 03:21:00,1963E-3,5C000000,-0724,0828,12103,029.3,045.5,0.472,724.6,01.19,0.508
2014-08-19 03:22:00,1827E-3,5C000000,-0724,0830,12131,029.3,045.5,0.472,724.7,01.19,0.508
2014-08-19 03:23:00,1903E-3,5C000000,-0724,0830,12184,029.3,045.5,0.472,724.7,01.19,0.508
2014-08-19 03:24:00,1941E-3,5C000000,-0724,0828,12149,029.3,045.5,0.472,724.7,01.19,0.508
2014-08-19 03:25:00,1947E-3,5C000000,-0724,0828,12210,029.2,045.5,0.472,724.7,01.19,0.508
2014-08-19 03:26:00,1814E-3,5C000000,-0724,0827,12145,029.2,045.5,0.472,724.7,01.19,0.508
2014-08-19 03:27:00,1733E-3,5C000000,-0724,0828,12232,029.2,045.5,0.472,724.7,01.19,0.508
2014-08-19 03:28:00,1845E-3,5C000000,-0724,0828,12392,029.2,045.5,0.472,724.7,01.19,0.508
2014-08-19 03:29:00,1936E-3,5C000000,-0724,0828,12340,029.2,045.5,0.472,724.7,01.19,0.508
2014-08-19 03:30:00,1893E-3,5C000000,-0724,0828,12104,029.2,045.5,0.472,724.7,01.19,0.508
2014-08-19 03:31:00,1814E-3,5C000000,-0724,0829,12266,029.2,045.5,0.472,724.7,01.19,0.508
2014-08-19 03:32:00,1760E-3,5C000000,-0724,0829,12057,029.2,045.5,0.472,724.7,01.19,0.508
2014-08-19 03:33:00,1786E-3,5C000000,-0724,0829,12187,029.2,045.5,0.472,724.7,01.19,0.508
2014-08-19 03:34:00,1737E-3,5C000000,-0724,0827,12246,029.2,045.5,0.472,724.7,01.19,0.508
2014-08-19 03:35:00,1863E-3,5C000000,-0724,0828,12140,029.2,045.5,0.472,724.7,01.19,0.508
2014-08-19 03:36:00,1907E-3,5C000000,-0724,0828,12236,029.2,045.5,0.472,724.7,01.19,0.508
2014-08-19 03:37:00,1774E-3,5C000000,-0724,0827,12143,029.2,045.5,0.472,724.7,01.19,0.508
2014-08-19 03:38:00,1980E-3,5C000000,-0724,0829,12178,029.2,045.5,0.472,724.7,01.19,0.508
2014-08-19 03:39:00,1718E-3,5C000000,-0724,0828,12110,029.1,045.5,0.472,724.7,01.19,0.508
2014-08-19 03:40:00,1912E-3,5C000000,-0724,0828,12169,029.2,045.5,0.472,724.7,01.19,0.508
2014-08-19 03:41:00,1734E-3,5C000000,-0724,0828,12280,029.1,045.5,0.472,724.7,01.19,0.508
2014-08-19 03:42:00,1830E-3,5C000000,-0724,0828,12218,029.2,045.5,0.472,724.7,01.19,0.508
2014-08-19 03:43:00,1724E-3,5C000000,-0724,0828,12260,029.1,045.5,0.472,724.7,01.19,0.508
2014-08-19 03:44:00,1725E-3,5C000000,-0724,0828,12081,029.2,045.5,0.472,724.7,01.19,0.508
2014-08-19 03:45:00,1745E-3,5C000000,-0724,0829,12267,029.1,045.5,0.472,724.7,01.19,0.508
2014-08-19 03:46:00,1800E-3,5C000000,-0724,0828,12273,029.1,045.5,0.472,724.7,01.19,0.508
2014-08-19 03:47:00,1841E-3,5C000000,-0724,0828,12270,029.1,045.5,0.472,724.7,01.19,0.508
2014-08-19 03:48:00,1851E-3,5C000000,-0724,0829,12074,029.1,045.5,0.472,724.7,01.19,0.508
2014-08-19 03:49:00,1655E-3,5C000000,-0724,0828,12309,029.1,045.5,0.472,724.7,01.19,0.508
2014-08-19 03:50:00,1795E-3,5C000000,-0724,0827,12228,029.1,045.5,0.472,724.7,01.19,0.508
2014-08-19 03:51:00,1926E-3,5C000000,-0724,0829,12214,029.1,045.5,0.472,724.7,01.19,0.508
2014-08-19 03:52:00,1849E-3,5C000000,-0724,0827,12109,029.1,045.5,0.472,724.7,01.19,0.508
2014-08-19 03:53:00,1903E-3,5C000000,-0724,0828,12384,029.1,045.5,0.473,724.7,01.19,0.508
2014-08-19 03:54:00,1883E-3,5C000000,-0724,0827,12141,029.1,045.5,0.472,724.7,01.19,0.508
2014-08-19 03:55:00,1873E-3,5C000000,-0724,0828,12150,029.1,045.5,0.472,724.7,01.19,0.508
2014-08-19 03:56:00,1721E-3,5C000000,-0724,0828,12288,029.1,045.5,0.472,724.7,01.19,0.508
2014-08-19 03:57:00,1693E-3,5C000000,-0724,0828,12196,029.1,045.5,0.472,724.7,01.19,0.508
2014-08-19 03:58:00,1780E-3,5C000000,-0724,0829,12241,029.1,045.5,0.473,724.7,01.19,0.508
2014-08-19 03:59:00,1969E-3,5C000000,-0724,0829,12141,029.1,045.6,0.472,724.7,01.19,0.508
2014-08-19 04:00:00,1938E-3,5C000000,-0724,0829,12082,029.1,045.5,0.472,724.7,01.19,0.508
2014-08-19 04:01:00,1926E-3,5C000000,-0724,0828,12096,029.1,045.5,0.472,724.7,01.19,0.508
2014-08-19 04:02:00,1862E-3,5C000000,-0724,0827,12192,029.1,045.5,0.472,724.7,01.19,0.508
2014-08-19 04:03:00,1843E-3,5C000000,-0724,0829,12219,029.1,045.5,0.472,724.7,01.19,0.508
2014-08-19 04:04:00,1748E-3,5C000000,-0724,0827,12400,029.1,045.5,0.472,724.7,01.19,0.508
2014-08-19 04:05:00,1766E-3,5C000000,-0724,0829,12160,029.1,045.5,0.472,724.7,01.19,0.508
2014-08-19 04:06:00,1766E-3,5C000000,-0724,0828,12228,029.1,045.5,0.472,724.7,01.19,0.508
2014-08-19 04:07:00,1843E-3,5C000000,-0724,0828,12331,029.1,045.5,0.472,724.7,01.19,0.508
2014-08-19 04:08:00,1848E-3,5C000000,-0724,0828,12400,029.1,045.5,0.472,724.7,01.19,0.508
2014-08-19 04:09:00,1995E-3,5C000000,-0724,0828,12219,029.1,045.5,0.473,724.7,01.19,0.508
2014-08-19 04:10:00,1845E-3,5C000000,-0724,0828,12262,029.1,045.5,0.472,724.7,01.19,0.508
2014-08-19 04:11:00,1770E-3,5C000000,-0724,0827,12292,029.1,045.5,0.472,724.7,01.19,0.508
2014-08-19 04:12:00,1885E-3,5C000000,-0724,0829,12285,029.1,045.5,0.472,724.7,01.19,0.508
2014-08-19 04:13:00,1893E-3,5C000000,-0724,0828,12077,029.1,045.5,0.472,724.7,01.19,0.508
2014-08-19 04:14:00,1907E-3,5C000000,-0724,0828,12194,029.1,045.5,0.472,724.7,01.19,0.508
2014-08-19 04:15:00,1811E-3,5C000000,-0724,0827,12294,029.1,045.5,0.472,724.7,01.19,0.508
2014-08-19 04:16:00,1844E-3,5C000000,-0724,0828,12313,029.1,045.5,0.472,724.7,01.19,0.508
2014-08-19 04:17:00,1747E-3,5C000000,-0724,0828,12229,029.1,045.5,0.472,724.7,01.19,0.508
2014-08-19 04:18:00,1846E-3,5C000000,-0724,0828,12261,029.1,045.5,0.472,724.7,01.19,0.508
2014-08-19 04:19:00,1963E-3,5C000000,-0724,0828,12282,029.1,045.5,0.472,724.7,01.19,0.508
2014-08-19 04:20:00,1740E-3,5C000000,-0724,0828,12205,029.1,045.5,0.472,724.7,01.19,0.508